DW0156 Weather Reports


time (UTC)temp
F
wind
direction
speed
knots
gust
knots
rain 1hr
in
rain 24hr
in
rain mn
in
humidity
%
barometer
mb
20260903065622 60 263 2.6 10.4 0.00 0.00 0.00 62 1019.1
20260903064521 60 263 4.3 10.4 0.00 0.00 0.00 62 1019.1
20260903063411 60 263 3.5 10.4 0.00 0.00 0.00 62 1019.1
20260903062226 61 263 3.5 10.4 0.00 0.00 0.00 63 1019.1
20260903061058 61 263 3.5 9.6 0.00 0.00 0.00 65 1019.1
20260903060601 61 263 3.5 9.6 0.00 0.00 0.00 64 1019.1
20260903060056 61 263 2.6 6.1 0.00 0.00 0.00 64 1019.1
20260903055554 61 263 2.6 6.1 0.00 0.00 0.00 64 1019.1
20260903055100 61 263 2.6 8.7 0.00 0.00 0.00 64 1019.1
20260903054541 61 263 2.6 8.7 0.00 0.00 0.00 64 1019.1
20260903054030 61 263 2.6 8.7 0.00 0.00 0.00 64 1019.0
20260903053533 61 263 3.5 8.7 0.00 0.00 0.00 64 1019.0
20260903052403 61 263 3.5 8.7 0.00 0.00 0.00 68 1019.0
20260903051901 61 263 2.6 7.8 0.00 0.00 0.00 68 1019.0
20260903051350 61 263 2.6 9.6 0.00 0.00 0.00 69 1018.7
20260903050854 61 263 3.5 9.6 0.00 0.00 0.00 69 1018.7
20260903045712 61 263 3.5 11.3 0.00 0.00 0.00 69 1018.6
20260903045152 61 263 5.2 11.3 0.00 0.00 0.00 68 1018.6
20260903044657 61 263 4.3 10.4 0.00 0.00 0.00 67 1018.6
20260903044203 62 263 4.3 9.6 0.00 0.00 0.00 69 1018.5
20260903043709 61 263 4.3 9.6 0.00 0.00 0.00 68 1018.5
20260903043158 61 263 3.5 10.4 0.00 0.00 0.00 68 1018.5
20260903042041 61 263 4.3 10.4 0.00 0.00 0.00 71 1018.5
20260903041546 61 263 3.5 10.4 0.00 0.00 0.00 71 1018.5
20260903041034 61 263 3.5 7.8 0.00 0.00 0.00 73 1018.5
20260903040543 62 263 3.5 7.8 0.00 0.00 0.00 73 1018.5
20260903040036 61 263 3.5 8.7 0.00 0.00 0.00 74 1018.5
20260903035521 61 263 3.5 8.7 0.00 0.00 0.00 73 1018.5
20260903035008 61 263 4.3 10.4 0.00 0.00 0.00 73 1018.5
20260903034452 61 263 5.2 10.4 0.00 0.00 0.00 73 1018.5
20260903033948 61 263 5.2 11.3 0.00 0.00 0.00 72 1018.5
20260903033448 62 263 3.5 11.3 0.00 0.00 0.00 72 1018.5
20260903032944 62 263 4.3 11.3 0.00 0.00 0.00 72 1018.5
20260903032429 62 263 3.5 11.3 0.00 0.00 0.00 73 1018.5
20260903031912 62 263 2.6 7.8 0.00 0.00 0.00 73 1018.5
20260903025529 61 263 3.5 8.7 0.00 0.00 0.00 78 1018.5
20260903025036 61 263 2.6 7.8 0.00 0.00 0.00 78 1018.5
20260903023910 60 263 3.5 7.8 0.00 0.00 0.00 80 1018.6
20260903023349 60 263 3.5 7.8 0.00 0.00 0.00 81 1018.6
20260903022841 60 263 3.5 7.8 0.00 0.00 0.00 81 1018.6
20260903022351 60 263 3.5 7.8 0.00 0.00 0.00 81 1018.6
20260903021847 60 263 3.5 7.8 0.00 0.00 0.00 83 1018.6
20260903021354 60 263 3.5 7.8 0.00 0.00 0.00 83 1018.6
20260903020246 60 263 3.5 7.8 0.00 0.00 0.00 86 1018.6
20260903015727 59 263 2.6 7.8 0.00 0.00 0.00 87 1018.5
20260903014620 59 263 3.5 8.7 0.00 0.00 0.00 88 1018.5
20260903013449 58 263 3.5 10.4 0.00 0.00 0.00 89 1018.5
20260903012952 58 263 4.3 10.4 0.00 0.00 0.00 89 1018.5
20260903011829 58 263 4.3 10.4 0.00 0.00 0.00 88 1018.4
20260903011331 58 263 3.5 11.3 0.00 0.00 0.00 89 1018.4
20260903010827 58 263 5.2 11.3 0.00 0.00 0.00 88 1018.4
20260903010324 58 263 5.2 11.3 0.00 0.00 0.00 87 1018.4
20260903005811 58 263 5.2 11.3 0.00 0.00 0.00 87 1018.2
20260903004638 59 263 5.2 13.0 0.00 0.00 0.00 85 1018.2
20260903004145 59 263 5.2 13.0 0.00 0.00 0.00 84 1018.1
20260903003643 59 263 5.2 13.0 0.00 0.00 0.00 84 1018.1
20260903003132 59 263 5.2 12.2 0.00 0.00 0.00 84 1018.1
20260903002003 59 263 4.3 12.2 0.00 0.00 0.00 84 1018.1
20260903001441 59 263 4.3 12.2 0.00 0.00 0.00 84 1018.1
20260903000947 59 263 4.3 11.3 0.00 0.00 0.00 85 1018.0
20260903000436 59 263 4.3 9.6 0.00 0.00 0.00 85 1018.0
20260902235940 59 263 4.3 14.8 0.00 0.00 0.00 85 1018.0
20260902235439 59 263 5.2 14.8 0.00 0.00 0.00 85 1018.0
20260902234932 58 263 5.2 14.8 0.00 0.00 0.00 85 1018.0
20260902233815 59 263 2.6 11.3 0.00 0.00 0.00 85 1017.9
20260902233325 58 263 2.6 11.3 0.00 0.00 0.00 86 1017.9
20260902232817 58 263 2.6 11.3 0.00 0.00 0.00 86 1018.0
20260902232259 58 263 3.5 11.3 0.00 0.00 0.00 86 1018.0
20260902231745 58 263 4.3 10.4 0.00 0.00 0.00 86 1018.0
20260902231235 58 263 4.3 10.4 0.00 0.00 0.00 86 1017.6
20260902230731 58 263 4.3 10.4 0.00 0.00 0.00 86 1017.6
20260902230216 58 263 3.5 10.4 0.00 0.00 0.00 86 1017.6
20260902225715 58 263 2.6 10.4 0.00 0.00 0.00 87 1017.5
20260902225219 58 263 2.6 10.4 0.00 0.00 0.00 87 1017.5
20260902224702 58 263 2.6 9.6 0.00 0.00 0.00 87 1017.5
20260902224147 57 263 1.7 8.7 0.00 0.00 0.00 87 1017.1
20260902223632 57 263 2.6 7.8 0.00 0.00 0.00 88 1017.1
20260902222449 57 263 0.9 5.2 0.00 0.00 0.00 88 1017.0
20260902221935 57 263 1.7 7.0 0.00 0.00 0.00 88 1017.0
20260902221431 56 263 0.9 7.0 0.00 0.00 0.00 88 1017.0
20260902220936 56 263 0.9 8.7 0.00 0.00 0.00 87 1016.8
20260902220438 56 263 1.7 8.7 0.00 0.00 0.00 87 1016.8
20260902215943 56 263 1.7 8.7 0.00 0.00 0.00 87 1016.8
20260902215451 56 263 1.7 8.7 0.00 0.00 0.00 87 1016.6
20260902214952 56 263 1.7 7.8 0.00 0.00 0.00 87 1016.6
20260902214440 56 263 1.7 7.8 0.00 0.00 0.00 87 1016.6
20260902213927 56 263 1.7 6.1 0.00 0.00 0.00 87 1016.5
20260902213436 56 263 1.7 7.8 0.00 0.00 0.00 87 1016.5
20260902212945 56 263 1.7 7.8 0.00 0.00 0.00 87 1016.5
20260902212444 56 263 2.6 7.8 0.00 0.00 0.00 87 1016.4
20260902211939 56 263 1.7 7.8 0.00 0.00 0.00 87 1016.4
20260902211448 56 263 1.7 4.3 0.00 0.00 0.00 86 1016.4
20260902210937 56 263 0.9 7.0 0.00 0.00 0.00 86 1016.1
20260902210439 56 263 0.9 7.0 0.00 0.00 0.00 86 1016.1
20260902205938 56 263 1.7 7.8 0.00 0.00 0.00 86 1016.1
20260902205430 56 263 1.7 7.8 0.00 0.00 0.00 86 1016.0
20260902204915 56 263 1.7 7.8 0.00 0.00 0.00 86 1016.0
20260902204411 56 263 0.9 7.8 0.00 0.00 0.00 85 1016.0
20260902203916 56 263 0.9 5.2 0.00 0.00 0.00 85 1015.9
20260902202747 56 263 0.9 7.8 0.00 0.00 0.00 85 1015.8
20260902202238 56 263 1.7 8.7 0.00 0.00 0.00 85 1015.8
20260902201748 56 263 1.7 8.7 0.00 0.00 0.00 85 1015.8
20260902195950 56 263 2.6 9.6 0.00 0.00 0.00 84 1015.6
20260902195432 56 263 2.6 9.6 0.00 0.00 0.00 84 1015.4
20260902194920 56 263 2.6 9.6 0.00 0.00 0.00 84 1015.4
20260902194402 56 263 2.6 9.6 0.00 0.00 0.00 84 1015.4
20260902193300 56 263 2.6 8.7 0.00 0.00 0.00 84 1015.4
20260902192142 56 263 2.6 8.7 0.00 0.00 0.00 83 1015.3
20260902191629 56 263 2.6 11.3 0.00 0.00 0.00 83 1015.3
20260902190506 56 263 2.6 11.3 0.00 0.00 0.00 83 1015.0
20260902185956 56 263 3.5 11.3 0.00 0.00 0.00 83 1015.0
20260902185446 56 263 2.6 11.3 0.00 0.00 0.00 82 1014.9
20260902184949 56 263 1.7 11.3 0.00 0.00 0.00 82 1014.9
20260902184445 56 263 1.7 11.3 0.00 0.00 0.00 82 1014.9
20260902183937 56 263 2.6 11.3 0.00 0.00 0.00 82 1014.9
20260902183430 56 263 2.6 7.8 0.00 0.00 0.00 81 1014.9
20260902182918 56 263 1.7 7.0 0.00 0.00 0.00 81 1014.9
20260902182426 56 263 1.7 11.3 0.00 0.00 0.00 81 1014.9
20260902181926 56 263 2.6 11.3 0.00 0.00 0.00 81 1014.9
20260902181421 56 263 3.5 11.3 0.00 0.00 0.00 81 1014.9
20260902180232 56 263 1.7 11.3 0.00 0.00 0.00 80 1014.9
20260902175717 56 263 2.6 10.4 0.00 0.00 0.00 80 1014.9
20260902175219 56 263 3.5 10.4 0.00 0.00 0.00 80 1014.9
20260902174716 56 263 2.6 9.6 0.00 0.00 0.00 79 1014.9
20260902173552 56 263 1.7 7.8 0.00 0.00 0.00 79 1015.0
20260902173057 56 263 2.6 7.8 0.00 0.00 0.00 78 1015.0
20260902172540 56 263 2.6 10.4 0.00 0.00 0.00 78 1015.1
20260902172039 56 263 1.7 10.4 0.00 0.00 0.00 78 1015.1
20260902171532 56 263 2.6 10.4 0.00 0.00 0.00 77 1015.1
20260902171014 56 263 2.6 10.4 0.00 0.00 0.00 77 1015.2
20260902170502 56 263 1.7 7.8 0.00 0.00 0.00 77 1015.2
20260902170006 56 263 1.7 7.8 0.00 0.00 0.00 76 1015.2
20260902165509 56 263 1.7 7.8 0.00 0.00 0.00 76 1015.3
20260902164329 56 263 0.9 5.2 0.00 0.00 0.00 76 1015.4
20260902163821 56 263 0.9 5.2 0.00 0.00 0.00 76 1015.4
20260902162632 55 263 1.7 7.8 0.00 0.00 0.00 76 1015.5
20260902162117 55 263 1.7 9.6 0.00 0.00 0.00 77 1015.5
20260902161607 55 263 1.7 9.6 0.00 0.00 0.00 76 1015.5
20260902155831 55 263 4.3 13.9 0.00 0.00 0.00 77 1015.8
20260902154708 55 263 1.7 7.8 0.00 0.00 0.00 78 1015.8
20260902152941 55 263 1.7 10.4 0.00 0.00 0.00 77 1015.6
20260902152448 55 263 2.6 10.4 0.00 0.00 0.00 77 1015.6
20260902151310 55 263 2.6 13.9 0.00 0.00 0.00 77 1015.9
20260902150809 55 263 3.5 13.9 0.00 0.00 0.00 76 1015.9
20260902150253 56 263 6.1 13.9 0.00 0.00 0.00 75 1015.9
20260902145737 56 263 5.2 13.9 0.00 0.00 0.00 74 1015.7
20260902145234 56 263 3.5 9.6 0.00 0.00 0.00 74 1015.7
20260902144741 56 263 2.6 7.8 0.00 0.00 0.00 74 1015.7
20260902144228 56 263 1.7 7.8 0.00 0.00 0.00 75 1015.8
20260902143737 56 263 0.9 7.8 0.00 0.00 0.00 75 1015.8
20260902143243 56 263 0.9 5.2 0.00 0.00 0.00 75 1015.8
20260902142745 56 263 1.7 8.7 0.00 0.00 0.00 75 1015.9
20260902142231 56 263 2.6 8.7 0.00 0.00 0.00 75 1015.9
20260902140545 56 263 2.6 7.0 0.00 0.00 0.00 75 1016.0
20260902140042 56 263 2.6 13.0 0.00 0.00 0.00 75 1016.0
20260902135551 56 263 2.6 13.0 0.00 0.00 0.00 75 1016.2
20260902135046 56 263 3.5 13.0 0.00 0.00 0.00 75 1016.2
20260902134535 56 263 4.3 13.0 0.00 0.00 0.00 75 1016.2
20260902133412 56 263 3.5 8.7 0.00 0.00 0.00 75 1016.2
20260902132920 56 263 2.6 8.7 0.00 0.00 0.00 75 1016.2
20260902132404 56 263 2.6 8.7 0.00 0.00 0.00 74 1016.1
20260902131852 56 263 3.5 8.7 0.00 0.00 0.00 74 1016.1
20260902131359 56 263 3.5 8.7 0.00 0.00 0.00 74 1016.2
20260902130900 56 263 2.6 8.7 0.00 0.00 0.00 73 1016.2
20260902130408 56 263 2.6 10.4 0.00 0.00 0.00 73 1016.2
20260902125905 56 263 2.6 10.4 0.00 0.00 0.00 73 1016.3
20260902124149 56 263 2.6 9.6 0.00 0.00 0.00 72 1016.4
20260902123649 55 263 2.6 9.6 0.00 0.00 0.00 72 1016.4
20260902123151 55 263 4.3 9.6 0.00 0.00 0.00 73 1016.4
20260902122650 55 263 3.5 8.7 0.00 0.00 0.00 74 1016.5
20260902122134 55 263 3.5 7.8 0.00 0.00 0.00 76 1016.5
20260902121616 55 263 3.5 7.8 0.00 0.00 0.00 77 1016.5
20260902121059 55 263 1.7 5.2 0.00 0.00 0.00 78 1016.5
20260902120558 55 263 0.9 4.3 0.00 0.00 0.00 79 1016.5
20260902120049 55 263 0.9 3.5 0.00 0.00 0.00 79 1016.5
20260902115548 55 263 0.9 3.5 0.00 0.00 0.00 79 1016.4
20260902115047 55 263 0.9 4.3 0.00 0.00 0.00 79 1016.4
20260902114531 55 263 0.0 4.3 0.00 0.00 0.00 79 1016.4
20260902114029 55 263 0.0 2.6 0.00 0.00 0.00 79 1016.4
20260902113509 55 263 0.0 2.6 0.00 0.00 0.00 79 1016.4
20260902112329 55 263 0.9 5.2 0.00 0.00 0.00 79 1016.2
20260902111820 55 263 0.9 5.2 0.00 0.00 0.00 79 1016.2
20260902110700 54 263 0.0 3.5 0.00 0.00 0.00 78 1016.2
20260902110140 54 263 0.0 2.6 0.00 0.00 0.00 77 1016.2
20260902105648 54 263 0.0 2.6 0.00 0.00 0.00 76 1016.0
20260902105134 54 263 0.9 5.2 0.00 0.00 0.00 76 1016.0
20260902103358 55 263 4.3 14.8 0.00 0.00 0.00 76 1016.0
20260902102857 55 263 5.2 14.8 0.00 0.00 0.00 76 1015.9
20260902101729 57 263 4.3 14.8 0.00 0.00 0.00 72 1015.9
20260902100620 57 263 2.6 9.6 0.00 0.00 0.00 67 1015.6
20260902100108 57 263 2.6 9.6 0.00 0.00 0.00 67 1015.6
20260902094944 57 263 2.6 8.7 0.00 0.00 0.00 65 1015.4
20260902094453 57 263 1.7 7.8 0.00 0.00 0.00 65 1015.4
20260902093938 57 263 1.7 5.2 0.00 0.00 0.00 65 1015.3
20260902092759 57 263 0.9 6.1 0.00 0.00 0.00 65 1015.0
20260902092250 57 263 0.9 7.0 0.00 0.00 0.00 66 1015.0
20260902091731 57 263 1.7 7.0 0.00 0.00 0.00 65 1015.0
20260902091236 57 263 1.7 8.7 0.00 0.00 0.00 64 1015.1
20260902090731 57 263 1.7 8.7 0.00 0.00 0.00 65 1015.1
20260902090237 57 263 2.6 8.7 0.00 0.00 0.00 65 1015.1
20260902085741 57 263 2.6 8.7 0.00 0.00 0.00 66 1014.9
20260902084620 57 263 2.6 7.8 0.00 0.00 0.00 67 1014.9
20260902082844 57 263 2.6 8.7 0.00 0.00 0.00 66 1014.8
20260902082348 57 263 2.6 8.7 0.00 0.00 0.00 66 1014.8
20260902081849 57 263 2.6 8.7 0.00 0.00 0.00 65 1014.8
20260902080105 58 263 2.6 8.7 0.00 0.00 0.00 66 1014.6
20260902075550 58 263 3.5 9.6 0.00 0.00 0.00 66 1014.7
20260902075054 58 263 3.5 9.6 0.00 0.00 0.00 65 1014.7
20260902074549 58 263 4.3 11.3 0.00 0.00 0.00 65 1014.7
20260902073420 58 263 3.5 11.3 0.00 0.00 0.00 64 1014.6
20260902072919 58 263 3.5 11.3 0.00 0.00 0.00 65 1014.6
20260902071736 58 263 1.7 7.8 0.00 0.00 0.00 65 1014.6
20260902071238 58 263 2.6 7.8 0.00 0.00 0.00 65 1014.8
20260902070720 58 263 1.7 7.8 0.00 0.00 0.00 65 1014.8
20260902070219 59 263 2.6 7.8 0.00 0.00 0.00 64 1014.8